Tracking 30107 objects as of 25-Jan-2025
HD Live streaming from Space Station
objects crossing your sky now

ONEWEB-0592

Track ONEWEB-0592 now!
10-day predictions
ONEWEB-0592 is classified as:


NORAD ID: 54658
Int'l Code: 2022-166S
Perigee: 1,183.5 km
Apogee: 1,186.2 km
Inclination: 87.9 °
Period: 108.9 minutes
Semi major axis: 7555 km
RCS: Unknown
Launch date: December 8, 2022
Source: United Kingdom (UK)
Launch site: AIR FORCE EASTERN TEST RANGE (AFETR)
Your satellite tracking list
Your tracking list is empty




NASA's NSSDC Master Catalog

Two Line Element Set (TLE):
1 54658U 22166S   25025.38883202  .00000094  00000-0  19672-3 0  9994
2 54658  87.9326 345.1335 0001803  75.8290 284.3044 13.21828861104350
Source of the keplerian elements: AFSPC